Location: Asheville, NC
(35.6000°N, 82.5500°W)
Time: 14:49:46
(UTC-05:00)

Vanguard 3 - Pass Details

Date: 08 December 2017
Orbit: 508 x 3264 km, 33.4° (Epoch: 17 January)

Event Time Altitude Azimuth Distance (km) Brightness Sun altitude
Rises 22:06:15 0° 257° (WSW) 4,368 11.3 -57.9°
Reaches altitude 10° 22:11:39 10° 229° (SW) 4,013 10.8 -58.9°
Enters shadow 22:12:12 11° 226° (SW) 4,023 10.8 -59.0°
Maximum altitude 22:15:19 12° 209° (SSW) 4,228 - -59.6°
Drops below altitude 10° 22:19:36 10° 190° (S) 4,824 - -60.5°
Sets 22:28:19 0° 166° (SSE) 6,538 - -62.2°
